This is the latest recevied weather packets stored in our database for station/object KN4MGS. If no packets are shown the sender has not sent any weather packets the latest 10 day(s).
| Time | Temp. | Humidity | Pressure | Rain* | Wind** | Luminosity | Snow |
|---|---|---|---|---|---|---|---|
| 1777756634 | 18.33° C | 44% | 1015.4 hPa | 0 mm | - | 437 W/m² | - |
| 1777756331 | 17.78° C | 45% | 1015.4 hPa | 0 mm | - | 483 W/m² | - |
| 1777756028 | 17.78° C | 46% | 1015.3 hPa | 0 mm | - | 402 W/m² | - |
| 1777755725 | 17.78° C | 43% | 1015.3 hPa | 0 mm | - | 459 W/m² | - |
| 1777755423 | 18.89° C | 44% | 1015.6 hPa | 0 mm | - | 464 W/m² | - |
| 1777755119 | 18.33° C | 42% | 1015.5 hPa | 0 mm | - | 469 W/m² | - |
| 1777754816 | 18.89° C | 42% | 1015.2 hPa | 0 mm | - | 492 W/m² | - |
| 1777754514 | 18.33° C | 44% | 1015.6 hPa | 0 mm | - | 522 W/m² | - |
| 1777754210 | 17.78° C | 45% | 1015.4 hPa | 0 mm | - | 544 W/m² | - |
| 1777753909 | 16.67° C | 43% | 1015.6 hPa | 0 mm | - | 578 W/m² | - |
| 1777753603 | 17.22° C | 43% | 1015.4 hPa | 0 mm | - | 289 W/m² | - |
| 1777753301 | 17.22° C | 46% | 1015.7 hPa | 0 mm | - | 350 W/m² | - |
| 1777752998 | 16.67° C | 47% | 1015.6 hPa | 0 mm | - | 299 W/m² | - |
| 1777752694 | 16.67° C | 43% | 1015.9 hPa | 0 mm | - | 306 W/m² | - |
| 1777752390 | 17.78° C | 46% | 1015.8 hPa | 0 mm | - | 326 W/m² | - |
| 1777752087 | 17.22° C | 48% | 1015.9 hPa | 0 mm | - | 538 W/m² | - |
| 1777751786 | 16.11° C | 47% | 1015.8 hPa | 0 mm | - | 551 W/m² | - |
| 1777751481 | 16.11° C | 48% | 1016.1 hPa | 0 mm | - | 234 W/m² | - |
| 1777751178 | 16.11° C | 48% | 1016.2 hPa | 0 mm | - | 199 W/m² | - |
| 1777750874 | 15.56° C | 48% | 1016 hPa | 0 mm | - | 223 W/m² | - |
| 1777750572 | 16.11° C | 48% | 1016.2 hPa | 0 mm | - | 239 W/m² | - |
| 1777750268 | 16.67° C | 48% | 1016.2 hPa | 0 mm | - | 324 W/m² | - |
| 1777749963 | 15.56° C | 48% | 1016.2 hPa | 0 mm | - | 300 W/m² | - |
| 1777749656 | 15.56° C | 47% | 1016.3 hPa | 0 mm | - | 327 W/m² | - |
| 1777749352 | 15.56° C | 48% | 1016.5 hPa | 0 mm | - | 308 W/m² | - |
* Rain latest hour (hover to see other rain measurements)
** Current wind speed in m/s (hover to see current wind gust speed)